Pittsburgh Allegheny Co., PA

5:27 PM EDT on March 27, 2017 (GMT -0400)
Allegheny County

Weather History for KAGC - March, 2012

Change the Weather History Date:

Friday, March 30, 2012

  Actual Average Record
Temperature  
Mean Temperature 47 °F -  
Max Temperature 63 °F 57 °F 84 °F (1998)
Min Temperature 32 °F 36 °F 25 °F (2003)
Degree Days  
Heating Degree Days 18    
Moisture  
Dew Point 38 °F    
Average Humidity 69    
Maximum Humidity 96    
Minimum Humidity 48    
Precipitation  
Precipitation 0.17 in - - ()
Sea Level Pressure  
Sea Level Pressure 29.90 in    
Wind  
Wind Speed 5 mph (ESE)    
Max Wind Speed 12 mph    
Max Gust Speed -    
Visibility 9 miles    
Events Rain , Thunderstorm    
Averages and records for this station are not official NWS values.
T = Trace of Precipitation, MM = Missing Value Source: NWS Daily Summary

Daily Weather History Graph

Daily Weather History Graph

Search for Another Location

Airport or City:

Trip Planner

Search our weather history database for the weather conditions in past years. The results will help you decide how hot, cold, wet, or windy it might be!

Date:

Astronomy

Mar. 30, 2012 Rise Set
Actual Time 7:05 AM EDT 7:42 PM EDT
Civil Twilight 6:38 AM EDT 8:10 PM EDT
Nautical Twilight 6:06 AM EDT 8:42 PM EDT
Astronomical Twilight 5:33 AM EDT 9:15 PM EDT
Moon 12:09 PM EDT (3/30) 2:18 AM EDT (3/30)
Length of Visible Light 13h 31m
Length of Day
12h 36m
Waxing Crescent, 49% of the Moon is Illuminated
Mar 30
Waxing Crescent
Mar 30
First Quarter
Apr 6
Full
Apr 13
Last Quarter
Apr 21
New

Hourly Weather History & Observations

Time (EDT) Temp. Windchill Dew Point Humidity Pressure Visibility Wind Dir Wind Speed Gust Speed Precip Events Conditions
12:53 AM 34.0 °F 28.8 °F 27.0 °F 75% 30.11 in 10.0 mi North 5.8 mph - N/A   Clear
1:53 AM 34.0 °F 31.0 °F 27.0 °F 75% 30.10 in 10.0 mi North 3.5 mph - N/A   Clear
2:53 AM 33.1 °F 30.0 °F 27.0 °F 78% 30.08 in 10.0 mi North 3.5 mph - N/A   Clear
3:53 AM 32.0 °F 28.7 °F 27.0 °F 82% 30.07 in 10.0 mi NNE 3.5 mph - N/A   Clear
4:53 AM 33.1 °F 30.0 °F 27.0 °F 78% 30.06 in 10.0 mi ENE 3.5 mph - N/A   Clear
5:53 AM 33.1 °F 30.0 °F 26.1 °F 75% 30.06 in 10.0 mi ENE 3.5 mph - N/A   Clear
6:53 AM 33.1 °F 28.7 °F 26.1 °F 75% 30.07 in 10.0 mi ENE 4.6 mph - N/A   Clear
7:53 AM 33.1 °F - 26.1 °F 75% 30.07 in 10.0 mi Calm Calm - N/A   Clear
8:53 AM 35.1 °F 31.0 °F 27.0 °F 72% 30.06 in 10.0 mi East 4.6 mph - N/A   Clear
9:53 AM 37.9 °F 35.5 °F 28.9 °F 70% 30.04 in 10.0 mi NNE 3.5 mph - N/A   Clear
10:53 AM 42.1 °F 40.2 °F 30.0 °F 62% 30.04 in 10.0 mi Variable 3.5 mph - N/A   Clear
11:53 AM 46.9 °F - 32.0 °F 56% 29.99 in 10.0 mi SE 6.9 mph - N/A   Clear
12:53 PM 53.1 °F - 36.0 °F 52% 29.96 in 10.0 mi ESE 5.8 mph - N/A   Partly Cloudy
1:53 PM 57.2 °F - 37.4 °F 48% 29.89 in 10.0 mi SSW 10.4 mph - N/A   Partly Cloudy
2:53 PM 57.0 °F - 39.0 °F 51% 29.88 in 10.0 mi South 8.1 mph - N/A   Overcast
3:53 PM 61.0 °F - 41.0 °F 48% 29.83 in 10.0 mi South 8.1 mph - N/A   Clear
4:53 PM 61.0 °F - 43.0 °F 52% 29.81 in 10.0 mi SSW 8.1 mph - N/A   Mostly Cloudy
5:53 PM 62.1 °F - 45.0 °F 53% 29.77 in 10.0 mi South 11.5 mph - N/A   Clear
6:53 PM 62.1 °F - 46.0 °F 56% 29.75 in 10.0 mi SSE 8.1 mph - N/A   Mostly Cloudy
7:53 PM 62.1 °F - 46.9 °F 58% 29.73 in 10.0 mi South 8.1 mph - N/A   Mostly Cloudy
8:53 PM 62.1 °F - 46.9 °F 58% 29.72 in 10.0 mi Calm Calm - N/A   Partly Cloudy
9:01 PM 60.8 °F - 46.4 °F 59% 29.70 in 10.0 mi Calm Calm - N/A Thunderstorm Thunderstorm
9:53 PM 55.9 °F - 52.0 °F 87% 29.73 in 7.0 mi SSE 5.8 mph - 0.06 in Rain , Thunderstorm Light Thunderstorms and Rain
10:53 PM 55.0 °F - 54.0 °F 96% 29.71 in 7.0 mi SE 3.5 mph - 0.08 in Rain , Thunderstorm Light Thunderstorms and Rain
11:15 PM 55.4 °F - 53.6 °F 94% 29.68 in 2.0 mi East 5.8 mph - 0.03 in Rain , Thunderstorm Light Thunderstorms and Rain
11:26 PM 55.4 °F - 53.6 °F 94% 29.68 in 5.0 mi ESE 9.2 mph - 0.03 in Thunderstorm Thunderstorm
11:53 PM 55.0 °F - 54.0 °F 96% 29.71 in 6.0 mi South 8.1 mph - 0.03 in Thunderstorm Mostly Cloudy